Year,Month,Day,Hour,Minute,Value (Times are PST for temperature in C)
2016,08,19,00,00,20.00
2016,08,19,00,01,20.10
2016,08,19,00,02,20.10
2016,08,19,00,03,20.10
2016,08,19,00,04,20.10
2016,08,19,00,05,20.20
2016,08,19,00,06,20.20
2016,08,19,00,07,20.20
2016,08,19,00,08,20.30
2016,08,19,00,09,20.30
2016,08,19,00,10,20.30
2016,08,19,00,11,20.40
2016,08,19,00,12,20.40
2016,08,19,00,13,20.50
2016,08,19,00,14,20.50
2016,08,19,00,15,20.60
2016,08,19,00,16,20.60
2016,08,19,00,17,20.60
2016,08,19,00,18,20.60
2016,08,19,00,19,20.60
2016,08,19,00,20,20.50
2016,08,19,00,21,20.40
2016,08,19,00,22,20.30
2016,08,19,00,23,20.30
2016,08,19,00,24,20.20
2016,08,19,00,25,20.20
2016,08,19,00,26,20.20
2016,08,19,00,27,20.20
2016,08,19,00,28,20.30
2016,08,19,00,29,20.50
2016,08,19,00,30,20.70
2016,08,19,00,31,20.90
2016,08,19,00,32,21.20
2016,08,19,00,33,21.50
2016,08,19,00,34,21.90
2016,08,19,00,35,22.40
2016,08,19,00,36,22.70
2016,08,19,00,37,23.00
2016,08,19,00,38,23.20
2016,08,19,00,39,23.50
2016,08,19,00,40,23.70
2016,08,19,00,41,24.00
2016,08,19,00,42,24.20
2016,08,19,00,43,24.40
2016,08,19,00,44,24.60
2016,08,19,00,45,24.70
2016,08,19,00,46,24.80
2016,08,19,00,47,24.90
2016,08,19,00,48,24.90
2016,08,19,00,49,24.90
2016,08,19,00,50,25.00
2016,08,19,00,51,25.00
2016,08,19,00,52,25.10
2016,08,19,00,53,25.10
2016,08,19,00,54,25.20
2016,08,19,00,55,25.20
2016,08,19,00,56,25.20
2016,08,19,00,57,25.30
2016,08,19,00,58,25.30
2016,08,19,00,59,25.30
2016,08,19,01,00,25.30
2016,08,19,01,01,25.40
2016,08,19,01,02,25.40
2016,08,19,01,03,25.40
2016,08,19,01,04,25.40
2016,08,19,01,05,25.40
2016,08,19,01,06,25.40
2016,08,19,01,07,25.40
2016,08,19,01,08,25.40
2016,08,19,01,09,25.40
2016,08,19,01,10,25.40
2016,08,19,01,11,25.40
2016,08,19,01,12,25.50
2016,08,19,01,13,25.50
2016,08,19,01,14,25.40
2016,08,19,01,15,25.40
2016,08,19,01,16,25.40
2016,08,19,01,17,25.40
2016,08,19,01,18,25.30
2016,08,19,01,19,25.30
2016,08,19,01,20,25.20
2016,08,19,01,21,25.00
2016,08,19,01,22,24.60
2016,08,19,01,23,24.20
2016,08,19,01,24,23.90
2016,08,19,01,25,23.40
2016,08,19,01,26,22.70
2016,08,19,01,27,22.00
2016,08,19,01,28,21.40
2016,08,19,01,29,21.00
2016,08,19,01,30,20.50
2016,08,19,01,31,20.20
2016,08,19,01,32,19.80
2016,08,19,01,33,19.50
2016,08,19,01,34,19.30
2016,08,19,01,35,19.10
2016,08,19,01,36,18.90
2016,08,19,01,37,18.80
2016,08,19,01,38,18.60
2016,08,19,01,39,18.50
2016,08,19,01,40,18.40
2016,08,19,01,41,18.40
2016,08,19,01,42,18.30
2016,08,19,01,43,18.20
2016,08,19,01,44,18.20
2016,08,19,01,45,18.10
2016,08,19,01,46,18.10
2016,08,19,01,47,18.00
2016,08,19,01,48,17.90
2016,08,19,01,49,17.90
2016,08,19,01,50,17.80
2016,08,19,01,51,17.80
2016,08,19,01,52,17.80
2016,08,19,01,53,17.70
2016,08,19,01,54,17.70
2016,08,19,01,55,17.70
2016,08,19,01,56,17.70
2016,08,19,01,57,17.60
2016,08,19,01,58,17.60
2016,08,19,01,59,17.60
2016,08,19,02,00,17.50
2016,08,19,02,01,17.50
2016,08,19,02,02,17.50
2016,08,19,02,03,17.50
2016,08,19,02,04,17.40
2016,08,19,02,05,17.40
2016,08,19,02,06,17.40
2016,08,19,02,07,17.40
2016,08,19,02,08,17.40
2016,08,19,02,09,17.40
2016,08,19,02,10,17.40
2016,08,19,02,11,17.40
2016,08,19,02,12,17.40
2016,08,19,02,13,17.30
2016,08,19,02,14,17.30
2016,08,19,02,15,17.30
2016,08,19,02,16,17.30
2016,08,19,02,17,17.30
2016,08,19,02,18,17.30
2016,08,19,02,19,17.30
2016,08,19,02,20,17.30
2016,08,19,02,21,17.30
2016,08,19,02,22,17.30
2016,08,19,02,23,17.30
2016,08,19,02,24,17.30
2016,08,19,02,25,17.30
2016,08,19,02,26,17.20
2016,08,19,02,27,17.20
2016,08,19,02,28,17.20
2016,08,19,02,29,17.20
2016,08,19,02,30,17.20
2016,08,19,02,31,17.20
2016,08,19,02,32,17.20
2016,08,19,02,33,17.10
2016,08,19,02,34,17.10
2016,08,19,02,35,17.10
2016,08,19,02,36,17.10
2016,08,19,02,37,17.10
2016,08,19,02,38,17.10
2016,08,19,02,39,17.10
2016,08,19,02,40,17.10
2016,08,19,02,41,17.10
2016,08,19,02,42,17.10
2016,08,19,02,43,17.10
2016,08,19,02,44,17.20
2016,08,19,02,45,17.20
2016,08,19,02,46,17.20
2016,08,19,02,47,17.30
2016,08,19,02,48,17.40
2016,08,19,02,49,17.40
2016,08,19,02,50,17.50
2016,08,19,02,51,17.60
2016,08,19,02,52,17.60
2016,08,19,02,53,17.60
2016,08,19,02,54,17.60
2016,08,19,02,55,17.50
2016,08,19,02,56,17.50
2016,08,19,02,57,17.40
2016,08,19,02,58,17.30
2016,08,19,02,59,17.20
2016,08,19,03,00,17.20
2016,08,19,03,01,17.10
2016,08,19,03,02,17.10
2016,08,19,03,03,17.00
2016,08,19,03,04,17.00
2016,08,19,03,05,16.90
2016,08,19,03,06,16.90
2016,08,19,03,07,16.80
2016,08,19,03,08,16.80
2016,08,19,03,09,16.80
2016,08,19,03,10,16.70
2016,08,19,03,11,16.70
2016,08,19,03,12,16.70
2016,08,19,03,13,16.70
2016,08,19,03,14,16.70
2016,08,19,03,15,16.80
2016,08,19,03,16,16.80
2016,08,19,03,17,16.90
2016,08,19,03,18,16.90
2016,08,19,03,19,17.00
2016,08,19,03,20,17.10
2016,08,19,03,21,17.10
2016,08,19,03,22,17.20
2016,08,19,03,23,17.30
2016,08,19,03,24,17.40
2016,08,19,03,25,17.40
2016,08,19,03,26,17.50
2016,08,19,03,27,17.60
2016,08,19,03,28,17.60
2016,08,19,03,29,17.70
2016,08,19,03,30,17.80
2016,08,19,03,31,18.00
2016,08,19,03,32,18.10
2016,08,19,03,33,18.30
2016,08,19,03,34,18.40
2016,08,19,03,35,18.50
2016,08,19,03,36,18.60
2016,08,19,03,37,18.70
2016,08,19,03,38,18.80
2016,08,19,03,39,19.00
2016,08,19,03,40,19.10
2016,08,19,03,41,19.20
2016,08,19,03,42,19.30
2016,08,19,03,43,19.40
2016,08,19,03,44,19.60
2016,08,19,03,45,19.70
2016,08,19,03,46,19.80
2016,08,19,03,47,20.00
2016,08,19,03,48,20.10
2016,08,19,03,49,20.30
2016,08,19,03,50,20.40
2016,08,19,03,51,20.60
2016,08,19,03,52,20.70
2016,08,19,03,53,20.80
2016,08,19,03,54,20.90
2016,08,19,03,55,20.90
2016,08,19,03,56,21.00
2016,08,19,03,57,21.10
2016,08,19,03,58,21.10
2016,08,19,03,59,21.10
2016,08,19,04,00,21.10
2016,08,19,04,01,21.10
2016,08,19,04,02,21.10
2016,08,19,04,03,21.10
2016,08,19,04,04,21.10
2016,08,19,04,05,21.10
2016,08,19,04,06,21.20
2016,08,19,04,07,21.20
2016,08,19,04,08,21.30
2016,08,19,04,09,21.40
2016,08,19,04,10,21.40
2016,08,19,04,11,21.50
2016,08,19,04,12,21.50
2016,08,19,04,13,21.60
2016,08,19,04,14,21.60
2016,08,19,04,15,21.60
2016,08,19,04,16,21.60
2016,08,19,04,17,21.70
2016,08,19,04,18,21.70
2016,08,19,04,19,21.70
2016,08,19,04,20,21.70
2016,08,19,04,21,21.70
2016,08,19,04,22,21.70
2016,08,19,04,23,21.70
2016,08,19,04,24,21.60
2016,08,19,04,25,21.60
2016,08,19,04,26,21.60
2016,08,19,04,27,21.60
2016,08,19,04,28,21.60
2016,08,19,04,29,21.50
2016,08,19,04,30,21.50
2016,08,19,04,31,21.50
2016,08,19,04,32,21.50
2016,08,19,04,33,21.50
2016,08,19,04,34,21.50
2016,08,19,04,35,21.50
2016,08,19,04,36,21.50
2016,08,19,04,37,21.50
2016,08,19,04,38,21.50
2016,08,19,04,39,21.40
2016,08,19,04,40,21.40
2016,08,19,04,41,21.40
2016,08,19,04,42,21.40
2016,08,19,04,43,21.40
2016,08,19,04,44,21.40
2016,08,19,04,45,21.40
2016,08,19,04,46,21.40
2016,08,19,04,47,21.40
2016,08,19,04,48,21.40
2016,08,19,04,49,21.40
2016,08,19,04,50,21.40
2016,08,19,04,51,21.30
2016,08,19,04,52,21.30
2016,08,19,04,53,21.30
2016,08,19,04,54,21.30
2016,08,19,04,55,21.30
2016,08,19,04,56,21.20
2016,08,19,04,57,21.20
2016,08,19,04,58,21.20
2016,08,19,04,59,21.20
2016,08,19,05,00,21.20
2016,08,19,05,01,21.20
2016,08,19,05,02,21.10
2016,08,19,05,03,21.10
2016,08,19,05,04,21.00
2016,08,19,05,05,21.00
2016,08,19,05,06,21.00
2016,08,19,05,07,20.90
2016,08,19,05,08,20.90
2016,08,19,05,09,20.90
2016,08,19,05,10,20.90
2016,08,19,05,11,21.00
2016,08,19,05,12,21.00
2016,08,19,05,13,21.10
2016,08,19,05,14,21.10
2016,08,19,05,15,21.10
2016,08,19,05,16,21.10
2016,08,19,05,17,21.10
2016,08,19,05,18,21.10
2016,08,19,05,19,21.10
2016,08,19,05,20,21.00
2016,08,19,05,21,21.00
2016,08,19,05,22,20.90
2016,08,19,05,23,20.90
2016,08,19,05,24,20.90
2016,08,19,05,25,20.90
2016,08,19,05,26,20.90
2016,08,19,05,27,20.80
2016,08,19,05,28,20.80
2016,08,19,05,29,20.80
2016,08,19,05,30,20.80
2016,08,19,05,31,20.70
2016,08,19,05,32,20.70
2016,08,19,05,33,20.70
2016,08,19,05,34,20.60
2016,08,19,05,35,20.60
2016,08,19,05,36,20.50
2016,08,19,05,37,20.50
2016,08,19,05,38,20.40
2016,08,19,05,39,20.40
2016,08,19,05,40,20.30
2016,08,19,05,41,20.30
2016,08,19,05,42,20.20
2016,08,19,05,43,20.10
2016,08,19,05,44,20.10
2016,08,19,05,45,20.00
2016,08,19,05,46,19.90
2016,08,19,05,47,19.80
2016,08,19,05,48,19.80
2016,08,19,05,49,19.80
2016,08,19,05,50,19.80
2016,08,19,05,51,19.70
2016,08,19,05,52,19.70
2016,08,19,05,53,19.70
2016,08,19,05,54,19.60
2016,08,19,05,55,19.60
2016,08,19,05,56,19.60
2016,08,19,05,57,19.50
2016,08,19,05,58,19.50
2016,08,19,05,59,19.40
2016,08,19,06,00,19.30
2016,08,19,06,01,19.30
2016,08,19,06,02,19.20
2016,08,19,06,03,19.10
2016,08,19,06,04,19.00
2016,08,19,06,05,18.90
2016,08,19,06,06,18.80
2016,08,19,06,07,18.70
2016,08,19,06,08,18.60
2016,08,19,06,09,18.40
2016,08,19,06,10,18.10
2016,08,19,06,11,18.00
2016,08,19,06,12,17.80
2016,08,19,06,13,17.70
2016,08,19,06,14,17.60
2016,08,19,06,15,17.50
2016,08,19,06,16,17.40
2016,08,19,06,17,17.40
2016,08,19,06,18,17.30
2016,08,19,06,19,17.30
2016,08,19,06,20,17.30
2016,08,19,06,21,17.30
2016,08,19,06,22,17.30
2016,08,19,06,23,17.40
2016,08,19,06,24,17.40
2016,08,19,06,25,17.50
2016,08,19,06,26,17.50
2016,08,19,06,27,17.60
2016,08,19,06,28,17.60
2016,08,19,06,29,17.70
2016,08,19,06,30,17.80
2016,08,19,06,31,17.80
2016,08,19,06,32,17.90
2016,08,19,06,33,18.00
2016,08,19,06,34,18.10
2016,08,19,06,35,18.10
2016,08,19,06,36,18.10
2016,08,19,06,37,18.10
2016,08,19,06,38,18.00
2016,08,19,06,39,18.00
2016,08,19,06,40,17.90
2016,08,19,06,41,17.90
2016,08,19,06,42,17.80
2016,08,19,06,43,17.80
2016,08,19,06,44,17.80
2016,08,19,06,45,17.80
2016,08,19,06,46,17.80
2016,08,19,06,47,17.80
2016,08,19,06,48,17.80
2016,08,19,06,49,17.90
2016,08,19,06,50,17.90
2016,08,19,06,51,17.90
2016,08,19,06,52,17.90
2016,08,19,06,53,17.90
2016,08,19,06,54,18.00
2016,08,19,06,55,18.00
2016,08,19,06,56,18.00
2016,08,19,06,57,18.00
2016,08,19,06,58,18.10
2016,08,19,06,59,18.10
2016,08,19,07,00,18.20
2016,08,19,07,01,18.30
2016,08,19,07,02,18.50
2016,08,19,07,03,18.70
2016,08,19,07,04,18.80
2016,08,19,07,05,19.00
2016,08,19,07,06,19.10
2016,08,19,07,07,19.30
2016,08,19,07,08,19.40
2016,08,19,07,09,19.50
2016,08,19,07,10,19.50
2016,08,19,07,11,19.60
2016,08,19,07,12,19.50
2016,08,19,07,13,19.40
2016,08,19,07,14,19.40
2016,08,19,07,15,19.30
2016,08,19,07,16,19.20
2016,08,19,07,17,19.20
2016,08,19,07,18,19.10
2016,08,19,07,19,19.00
2016,08,19,07,20,19.00
2016,08,19,07,21,18.90
2016,08,19,07,22,18.90
2016,08,19,07,23,19.00
2016,08,19,07,24,19.00
2016,08,19,07,25,19.10
2016,08,19,07,26,19.20
2016,08,19,07,27,19.40
2016,08,19,07,28,19.50
2016,08,19,07,29,19.70
2016,08,19,07,30,19.80
2016,08,19,07,31,19.90
2016,08,19,07,32,19.90
2016,08,19,07,33,20.00
2016,08,19,07,34,20.10
2016,08,19,07,35,20.20
2016,08,19,07,36,20.20
2016,08,19,07,37,20.30
2016,08,19,07,38,20.40
2016,08,19,07,39,20.50
2016,08,19,07,40,20.50
2016,08,19,07,41,20.60
2016,08,19,07,42,20.70
2016,08,19,07,43,20.70
2016,08,19,07,44,20.80
2016,08,19,07,45,20.80
2016,08,19,07,46,20.80
2016,08,19,07,47,20.80
2016,08,19,07,48,20.90
2016,08,19,07,49,20.90
2016,08,19,07,50,20.90
2016,08,19,07,51,20.90
2016,08,19,07,52,20.90
2016,08,19,07,53,20.90
2016,08,19,07,54,20.90
2016,08,19,07,55,20.90
2016,08,19,07,56,20.90
2016,08,19,07,57,20.90
2016,08,19,07,58,20.90
2016,08,19,07,59,21.00
2016,08,19,08,00,21.00
2016,08,19,08,01,21.00
2016,08,19,08,02,21.10
2016,08,19,08,03,21.10
2016,08,19,08,04,21.10
2016,08,19,08,05,21.10
2016,08,19,08,06,21.10
2016,08,19,08,07,21.10
2016,08,19,08,08,21.10
2016,08,19,08,09,21.10
2016,08,19,08,10,21.20
2016,08,19,08,11,21.20
2016,08,19,08,12,21.30
2016,08,19,08,13,21.30
2016,08,19,08,14,21.40
2016,08,19,08,15,21.40
2016,08,19,08,16,21.50
2016,08,19,08,17,21.50
2016,08,19,08,18,21.50
2016,08,19,08,19,21.60
2016,08,19,08,20,21.60
2016,08,19,08,21,21.60
2016,08,19,08,22,21.60
2016,08,19,08,23,21.60
2016,08,19,08,24,21.60
2016,08,19,08,25,21.60
2016,08,19,08,26,21.60
2016,08,19,08,27,21.60
2016,08,19,08,28,21.60
2016,08,19,08,29,21.60
2016,08,19,08,30,21.60
2016,08,19,08,31,21.60
2016,08,19,08,32,21.60
2016,08,19,08,33,21.60
2016,08,19,08,34,21.60
2016,08,19,08,35,21.60
2016,08,19,08,36,21.60
2016,08,19,08,37,21.70
2016,08,19,08,38,21.70
2016,08,19,08,39,21.70
2016,08,19,08,40,21.80
2016,08,19,08,41,21.80
2016,08,19,08,42,21.90
2016,08,19,08,43,22.00
2016,08,19,08,44,22.00
2016,08,19,08,45,22.10
2016,08,19,08,46,22.20
2016,08,19,08,47,22.30
2016,08,19,08,48,22.40
2016,08,19,08,49,22.50
2016,08,19,08,50,22.70
2016,08,19,08,51,22.90
2016,08,19,08,52,23.20
2016,08,19,08,53,23.40
2016,08,19,08,54,23.60
2016,08,19,08,55,23.80
2016,08,19,08,56,24.00
2016,08,19,08,57,24.20
2016,08,19,08,58,24.40
2016,08,19,08,59,24.60
2016,08,19,09,00,24.70
2016,08,19,09,01,24.90
2016,08,19,09,02,25.00
2016,08,19,09,03,25.10
2016,08,19,09,04,25.20
2016,08,19,09,05,25.20
2016,08,19,09,06,25.30
2016,08,19,09,07,25.40
2016,08,19,09,08,25.50
2016,08,19,09,09,25.60
2016,08,19,09,10,25.60
2016,08,19,09,11,25.70
2016,08,19,09,12,25.70
2016,08,19,09,13,25.70
2016,08,19,09,14,25.70
2016,08,19,09,15,25.70
2016,08,19,09,16,25.70
2016,08,19,09,17,25.70
2016,08,19,09,18,25.70
2016,08,19,09,19,25.70
2016,08,19,09,20,25.80
2016,08,19,09,21,25.80
2016,08,19,09,22,25.80
2016,08,19,09,23,25.80
2016,08,19,09,24,25.80
2016,08,19,09,25,25.90
2016,08,19,09,26,25.90
2016,08,19,09,27,26.00
2016,08,19,09,28,26.10
2016,08,19,09,29,26.10
2016,08,19,09,30,26.20
2016,08,19,09,31,26.20
2016,08,19,09,32,26.20
2016,08,19,09,33,26.20
2016,08,19,09,34,26.20
2016,08,19,09,35,26.30
2016,08,19,09,36,26.30
2016,08,19,09,37,26.30
2016,08,19,09,38,26.30
2016,08,19,09,39,26.30
2016,08,19,09,40,26.30
2016,08,19,09,41,26.30
2016,08,19,09,42,26.30
2016,08,19,09,43,26.30
2016,08,19,09,44,26.40
2016,08,19,09,45,26.40
2016,08,19,09,46,26.40
2016,08,19,09,47,26.50
2016,08,19,09,48,26.60
2016,08,19,09,49,26.60
2016,08,19,09,50,26.60
2016,08,19,09,51,26.60
2016,08,19,09,52,26.60
2016,08,19,09,53,26.60
2016,08,19,09,54,26.60
2016,08,19,09,55,26.60
2016,08,19,09,56,26.70
2016,08,19,09,57,26.70
2016,08,19,09,58,26.80
2016,08,19,09,59,26.80
2016,08,19,10,00,26.80
2016,08,19,10,01,26.80
2016,08,19,10,02,26.80
2016,08,19,10,03,26.80
2016,08,19,10,04,26.80
2016,08,19,10,05,26.80
2016,08,19,10,06,26.80
2016,08,19,10,07,26.80
2016,08,19,10,08,26.80
2016,08,19,10,09,26.90
2016,08,19,10,10,26.90
2016,08,19,10,11,26.90
2016,08,19,10,12,26.90
2016,08,19,10,13,27.00
2016,08,19,10,14,27.00
2016,08,19,10,15,27.10
2016,08,19,10,16,27.20
2016,08,19,10,17,27.20
2016,08,19,10,18,27.20
2016,08,19,10,19,27.20
2016,08,19,10,20,27.30
2016,08,19,10,21,27.30
2016,08,19,10,22,27.30
2016,08,19,10,23,27.30
2016,08,19,10,24,27.40
2016,08,19,10,25,27.30
2016,08,19,10,26,27.30
2016,08,19,10,27,27.30
2016,08,19,10,28,27.30
2016,08,19,10,29,27.30
2016,08,19,10,30,27.30
2016,08,19,10,31,27.30
2016,08,19,10,32,27.30
2016,08,19,10,33,27.30
2016,08,19,10,34,27.30
2016,08,19,10,35,27.30
2016,08,19,10,36,27.30
2016,08,19,10,37,27.40
2016,08,19,10,38,27.50
2016,08,19,10,39,27.60
2016,08,19,10,40,27.50
2016,08,19,10,41,27.50
2016,08,19,10,42,27.40
2016,08,19,10,43,27.40
2016,08,19,10,44,27.40
2016,08,19,10,45,27.30
2016,08,19,10,46,27.30
2016,08,19,10,47,27.30
2016,08,19,10,48,27.40
2016,08,19,10,49,27.40
2016,08,19,10,50,27.30
2016,08,19,10,51,27.30
2016,08,19,10,52,27.30
2016,08,19,10,53,27.30
2016,08,19,10,54,27.40
2016,08,19,10,55,27.40
2016,08,19,10,56,27.50
2016,08,19,10,57,27.50
2016,08,19,10,58,27.40
2016,08,19,10,59,27.40
2016,08,19,11,00,27.40
2016,08,19,11,01,27.40
2016,08,19,11,02,27.50
2016,08,19,11,03,27.60
2016,08,19,11,04,27.70
2016,08,19,11,05,27.70
2016,08,19,11,06,27.70
2016,08,19,11,07,27.60
2016,08,19,11,08,27.60
2016,08,19,11,09,27.50
2016,08,19,11,10,27.50
2016,08,19,11,11,27.40
2016,08,19,11,12,27.40
2016,08,19,11,13,27.40
2016,08,19,11,14,27.50
2016,08,19,11,15,27.50
2016,08,19,11,16,27.60
2016,08,19,11,17,27.70
2016,08,19,11,18,27.70
2016,08,19,11,19,27.80
2016,08,19,11,20,27.80
2016,08,19,11,21,27.80
2016,08,19,11,22,27.80
2016,08,19,11,23,27.80
2016,08,19,11,24,27.80
2016,08,19,11,25,27.80
2016,08,19,11,26,27.80
2016,08,19,11,27,27.80
2016,08,19,11,28,27.80
2016,08,19,11,29,27.80
2016,08,19,11,30,27.90
2016,08,19,11,31,28.00
2016,08,19,11,32,28.00
2016,08,19,11,33,28.10
2016,08,19,11,34,28.10
2016,08,19,11,35,28.10
2016,08,19,11,36,28.10
2016,08,19,11,37,28.20
2016,08,19,11,38,28.20
2016,08,19,11,39,28.30
2016,08,19,11,40,28.20
2016,08,19,11,41,28.10
2016,08,19,11,42,28.00
2016,08,19,11,43,28.00
2016,08,19,11,44,28.00
2016,08,19,11,45,27.90
2016,08,19,11,46,27.80
2016,08,19,11,47,27.80
2016,08,19,11,48,27.80
2016,08,19,11,49,27.90
2016,08,19,11,50,28.00
2016,08,19,11,51,28.10
2016,08,19,11,52,28.10
2016,08,19,11,53,28.10
2016,08,19,11,54,28.10
2016,08,19,11,55,28.10
2016,08,19,11,56,28.10
2016,08,19,11,57,28.20
2016,08,19,11,58,28.20
2016,08,19,11,59,28.20
2016,08,19,12,00,28.30
2016,08,19,12,01,28.30
2016,08,19,12,02,28.50
2016,08,19,12,03,28.60
2016,08,19,12,04,28.60
2016,08,19,12,05,28.60
2016,08,19,12,06,28.50
2016,08,19,12,07,28.50
2016,08,19,12,08,28.50
2016,08,19,12,09,28.60
2016,08,19,12,10,28.60
2016,08,19,12,11,28.60
2016,08,19,12,12,28.60
2016,08,19,12,13,28.60
2016,08,19,12,14,28.50
2016,08,19,12,15,28.60
2016,08,19,12,16,28.70
2016,08,19,12,17,28.80
2016,08,19,12,18,28.90
2016,08,19,12,19,29.00
2016,08,19,12,20,29.10
2016,08,19,12,21,29.10
2016,08,19,12,22,29.10
2016,08,19,12,23,29.10
2016,08,19,12,24,29.10
2016,08,19,12,25,29.10
2016,08,19,12,26,29.10
2016,08,19,12,27,29.10
2016,08,19,12,28,29.10
2016,08,19,12,29,29.00
2016,08,19,12,30,29.00
2016,08,19,12,31,28.90
2016,08,19,12,32,29.00
2016,08,19,12,33,29.10
2016,08,19,12,34,29.10
2016,08,19,12,35,29.10
2016,08,19,12,36,29.00
2016,08,19,12,37,29.00
2016,08,19,12,38,28.90
2016,08,19,12,39,28.90
2016,08,19,12,40,28.90
2016,08,19,12,41,28.80
2016,08,19,12,42,28.80
2016,08,19,12,43,28.80
2016,08,19,12,44,28.80
2016,08,19,12,45,28.80
2016,08,19,12,46,28.80
2016,08,19,12,47,28.80
2016,08,19,12,48,28.80
2016,08,19,12,49,28.90
2016,08,19,12,50,29.00
2016,08,19,12,51,29.10
2016,08,19,12,52,29.10
2016,08,19,12,53,29.20
2016,08,19,12,54,29.20
2016,08,19,12,55,29.20
2016,08,19,12,56,29.20
2016,08,19,12,57,29.20
2016,08,19,12,58,29.20
2016,08,19,12,59,29.30
2016,08,19,13,00,29.30
2016,08,19,13,01,29.30
2016,08,19,13,02,29.40
2016,08,19,13,03,29.50
2016,08,19,13,04,29.60
2016,08,19,13,05,29.70
2016,08,19,13,06,29.80
2016,08,19,13,07,29.90
2016,08,19,13,08,29.90
2016,08,19,13,09,29.90
2016,08,19,13,10,29.80
2016,08,19,13,11,29.80
2016,08,19,13,12,29.80
2016,08,19,13,13,29.80
2016,08,19,13,14,29.80
2016,08,19,13,15,29.80
2016,08,19,13,16,29.80
2016,08,19,13,17,29.80
2016,08,19,13,18,30.00
2016,08,19,13,19,30.10
2016,08,19,13,20,30.20
2016,08,19,13,21,30.40
2016,08,19,13,22,30.50
2016,08,19,13,23,30.60
2016,08,19,13,24,30.80
2016,08,19,13,25,30.80
2016,08,19,13,26,30.80
2016,08,19,13,27,30.80
2016,08,19,13,28,30.80
2016,08,19,13,29,30.80
2016,08,19,13,30,30.90
2016,08,19,13,31,31.00
2016,08,19,13,32,30.90
2016,08,19,13,33,30.80
2016,08,19,13,34,30.70
2016,08,19,13,35,30.70
2016,08,19,13,36,30.60
2016,08,19,13,37,30.60
2016,08,19,13,38,30.60
2016,08,19,13,39,30.70
2016,08,19,13,40,30.70
2016,08,19,13,41,30.60
2016,08,19,13,42,30.50
2016,08,19,13,43,30.40
2016,08,19,13,44,30.40
2016,08,19,13,45,30.40
2016,08,19,13,46,30.40
2016,08,19,13,47,30.50
2016,08,19,13,48,30.60
2016,08,19,13,49,30.70
2016,08,19,13,50,30.70
2016,08,19,13,51,30.80
2016,08,19,13,52,30.80
2016,08,19,13,53,30.80
2016,08,19,13,54,30.80
2016,08,19,13,55,30.80
2016,08,19,13,56,30.80
2016,08,19,13,57,30.70
2016,08,19,13,58,30.70
2016,08,19,13,59,30.60
2016,08,19,14,00,30.60
2016,08,19,14,01,30.60
2016,08,19,14,02,30.70
2016,08,19,14,03,30.80
2016,08,19,14,04,30.80
2016,08,19,14,05,30.80
2016,08,19,14,06,30.80
2016,08,19,14,07,30.80
2016,08,19,14,08,30.90
2016,08,19,14,09,31.00
2016,08,19,14,10,31.10
2016,08,19,14,11,31.00
2016,08,19,14,12,31.00
2016,08,19,14,13,31.00
2016,08,19,14,14,31.00
2016,08,19,14,15,31.10
2016,08,19,14,16,31.20
2016,08,19,14,17,31.30
2016,08,19,14,18,31.30
2016,08,19,14,19,31.40
2016,08,19,14,20,31.50
2016,08,19,14,21,31.60
2016,08,19,14,22,31.60
2016,08,19,14,23,31.60
2016,08,19,14,24,31.50
2016,08,19,14,25,31.50
2016,08,19,14,26,31.40
2016,08,19,14,27,31.50
2016,08,19,14,28,31.60
2016,08,19,14,29,31.70
2016,08,19,14,30,31.80
2016,08,19,14,31,31.90
2016,08,19,14,32,32.00
2016,08,19,14,33,32.10
2016,08,19,14,34,32.20
2016,08,19,14,35,32.30
2016,08,19,14,36,32.20
2016,08,19,14,37,32.20
2016,08,19,14,38,32.30
2016,08,19,14,39,32.40
2016,08,19,14,40,32.40
2016,08,19,14,41,32.60
2016,08,19,14,42,32.70
2016,08,19,14,43,32.70
2016,08,19,14,44,32.70
2016,08,19,14,45,32.60
2016,08,19,14,46,32.60
2016,08,19,14,47,32.60
2016,08,19,14,48,32.60
2016,08,19,14,49,32.70
2016,08,19,14,50,32.70
2016,08,19,14,51,32.70
2016,08,19,14,52,32.50
2016,08,19,14,53,32.10
2016,08,19,14,54,31.60
2016,08,19,14,55,30.90
2016,08,19,14,56,30.30
2016,08,19,14,57,29.60
2016,08,19,14,58,28.90
2016,08,19,14,59,28.40
2016,08,19,15,00,28.20
2016,08,19,15,01,28.00
2016,08,19,15,02,28.00
2016,08,19,15,03,28.10
2016,08,19,15,04,28.30
2016,08,19,15,05,28.50
2016,08,19,15,06,28.60
2016,08,19,15,07,28.80
2016,08,19,15,08,28.90
2016,08,19,15,09,28.90
2016,08,19,15,10,29.00
2016,08,19,15,11,29.10
2016,08,19,15,12,29.10
2016,08,19,15,13,29.10
2016,08,19,15,14,29.20
2016,08,19,15,15,29.40
2016,08,19,15,16,29.40
2016,08,19,15,17,29.20
2016,08,19,15,18,29.00
2016,08,19,15,19,28.90
2016,08,19,15,20,28.80
2016,08,19,15,21,28.70
2016,08,19,15,22,28.40
2016,08,19,15,23,28.00
2016,08,19,15,24,27.60
2016,08,19,15,25,27.10
2016,08,19,15,26,26.80
2016,08,19,15,27,26.50
2016,08,19,15,28,26.40
2016,08,19,15,29,26.30
2016,08,19,15,30,26.30
2016,08,19,15,31,26.20
2016,08,19,15,32,26.10
2016,08,19,15,33,26.00
2016,08,19,15,34,25.90
2016,08,19,15,35,25.90
2016,08,19,15,36,25.90
2016,08,19,15,37,25.90
2016,08,19,15,38,26.00
2016,08,19,15,39,26.00
2016,08,19,15,40,26.10
2016,08,19,15,41,26.10
2016,08,19,15,42,26.20
2016,08,19,15,43,26.40
2016,08,19,15,44,26.60
2016,08,19,15,45,26.80
2016,08,19,15,46,27.00
2016,08,19,15,47,27.20
2016,08,19,15,48,27.20
2016,08,19,15,49,27.30
2016,08,19,15,50,27.40
2016,08,19,15,51,27.50
2016,08,19,15,52,27.50
2016,08,19,15,53,27.50
2016,08,19,15,54,27.50
2016,08,19,15,55,27.40
2016,08,19,15,56,27.40
2016,08,19,15,57,27.40
2016,08,19,15,58,27.50
2016,08,19,15,59,27.60
2016,08,19,16,00,27.80
2016,08,19,16,01,28.00
2016,08,19,16,02,28.20
2016,08,19,16,03,28.40
2016,08,19,16,04,28.60
2016,08,19,16,05,28.70
2016,08,19,16,06,28.80
2016,08,19,16,07,28.90
2016,08,19,16,08,28.90
2016,08,19,16,09,28.90
2016,08,19,16,10,28.80
2016,08,19,16,11,28.70
2016,08,19,16,12,28.40
2016,08,19,16,13,28.00
2016,08,19,16,14,27.70
2016,08,19,16,15,27.40
2016,08,19,16,16,27.20
2016,08,19,16,17,27.00
2016,08,19,16,18,26.80
2016,08,19,16,19,26.50
2016,08,19,16,20,26.30
2016,08,19,16,21,26.10
2016,08,19,16,22,26.00
2016,08,19,16,23,25.90
2016,08,19,16,24,25.90
2016,08,19,16,25,25.80
2016,08,19,16,26,25.70
2016,08,19,16,27,25.70
2016,08,19,16,28,25.70
2016,08,19,16,29,25.70
2016,08,19,16,30,25.70
2016,08,19,16,31,25.70
2016,08,19,16,32,25.80
2016,08,19,16,33,25.80
2016,08,19,16,34,25.90
2016,08,19,16,35,26.00
2016,08,19,16,36,26.10
2016,08,19,16,37,26.20
2016,08,19,16,38,26.20
2016,08,19,16,39,26.30
2016,08,19,16,40,26.30
2016,08,19,16,41,26.30
2016,08,19,16,42,26.40
2016,08,19,16,43,26.50
2016,08,19,16,44,26.70
2016,08,19,16,45,26.80
2016,08,19,16,46,26.90
2016,08,19,16,47,26.90
2016,08,19,16,48,26.70
2016,08,19,16,49,26.30
2016,08,19,16,50,26.00
2016,08,19,16,51,25.70
2016,08,19,16,52,25.50
2016,08,19,16,53,25.40
2016,08,19,16,54,25.30
2016,08,19,16,55,25.30
2016,08,19,16,56,25.30
2016,08,19,16,57,25.30
2016,08,19,16,58,25.40
2016,08,19,16,59,25.50
2016,08,19,17,00,25.70
2016,08,19,17,01,25.80
2016,08,19,17,02,25.90
2016,08,19,17,03,26.10
2016,08,19,17,04,26.30
2016,08,19,17,05,26.50
2016,08,19,17,06,26.50
2016,08,19,17,07,26.70
2016,08,19,17,08,26.80
2016,08,19,17,09,26.90
2016,08,19,17,10,27.10
2016,08,19,17,11,27.20
2016,08,19,17,12,27.40
2016,08,19,17,13,27.60
2016,08,19,17,14,27.70
2016,08,19,17,15,27.80
2016,08,19,17,16,28.00
2016,08,19,17,17,28.20
2016,08,19,17,18,28.30
2016,08,19,17,19,28.50